﻿_id,日時,平均風速(m/s),平均風向,最大瞬間風速(m/s),最大風速時風向,気温(℃),湿度(%),10分間移動積算雨量(mm),1時間移動積算雨量(mm),日雨量(mm),累計雨量(mm)
1,2021-05-17T00:00:00,1.6,南南西,6.3,南南西,24.2,85.4,0,0,6,7.5
2,2021-05-17T00:01:00,1.7,南南西,6.3,南南西,24.2,85.3,0,0,0,7.5
3,2021-05-17T00:02:00,1.7,南南西,6,南,24.2,85.2,0,0,0,7.5
4,2021-05-17T00:03:00,1.5,南南西,5.9,南西,24.2,85.2,0,0,0,7.5
5,2021-05-17T00:04:00,1.7,南,6.3,南南西,24.2,85,0,0,0,7.5
6,2021-05-17T00:05:00,1.7,南,6.3,南南西,24.2,84.9,0,0,0,7.5
7,2021-05-17T00:06:00,1.7,南,6.3,南南西,24.1,84.8,0,0,0,7.5
8,2021-05-17T00:07:00,1.8,南,6.3,南南西,24.1,85.2,0,0,0,7.5
9,2021-05-17T00:08:00,1.8,南,6.3,南南西,24.1,85.2,0,0,0,7.5
10,2021-05-17T00:09:00,2,南,6.3,南南西,24.1,85.3,0,0,0,7.5
11,2021-05-17T00:10:00,1.9,南南西,6.3,南南西,24.1,85.3,0,0,0,7.5
12,2021-05-17T00:11:00,1.8,南,6.3,南南西,24,85.4,0,0,0,7.5
13,2021-05-17T00:12:00,1.7,南,6.3,南南西,24,85.7,0,0,0,7.5
14,2021-05-17T00:13:00,2,南南西,7.1,南,24.1,85.8,0,0,0,7.5
15,2021-05-17T00:14:00,1.9,南南西,7.1,南,24.1,85.7,0,0,0,7.5
16,2021-05-17T00:15:00,2,南南西,7.1,南,24.1,85.7,0,0,0,7.5
17,2021-05-17T00:16:00,2,南南西,7.1,南,24.1,85.6,0,0,0,7.5
18,2021-05-17T00:17:00,2.1,南南西,7.1,南,24,85.6,0,0,0,7.5
19,2021-05-17T00:18:00,2.2,南南西,7.1,南,24.1,85.8,0,0,0,7.5
20,2021-05-17T00:19:00,2.2,南,7.1,南,24.1,85.8,0,0,0,7.5
21,2021-05-17T00:20:00,2.4,南,7.1,南,24.1,85.8,0,0,0,7.5
22,2021-05-17T00:21:00,2.5,南,7.1,南,24.1,85.8,0,0,0,7.5
23,2021-05-17T00:22:00,2.6,南,7.1,南,24.1,85.8,0,0,0,7.5
24,2021-05-17T00:23:00,2.5,南,6.2,南南東,24.1,85.7,0,0,0,7.5
25,2021-05-17T00:24:00,2.5,南,6.5,南南東,24.1,85.7,0,0,0,7.5
26,2021-05-17T00:25:00,2.7,南,8.9,南,24.1,85.6,0,0,0,7.5
27,2021-05-17T00:26:00,2.8,南,8.9,南,24.1,85.5,0,0,0,7.5
28,2021-05-17T00:27:00,2.9,南,8.9,南,24.1,85.5,0,0,0,7.5
29,2021-05-17T00:28:00,2.9,南,8.9,南,24.1,85.5,0,0,0,7.5
30,2021-05-17T00:29:00,2.8,南,8.9,南,24.1,85.5,0,0,0,7.5
31,2021-05-17T00:30:00,2.8,南,8.9,南,24.1,85.7,0,0,0,7.5
32,2021-05-17T00:31:00,2.7,南南西,8.9,南,23.9,85.8,0,0,0,7.5
33,2021-05-17T00:32:00,2.5,南南西,8.9,南,23.9,86,0,0,0,7.5
34,2021-05-17T00:33:00,2.3,南南西,8.9,南,23.9,86.3,0,0,0,7.5
35,2021-05-17T00:34:00,2.4,南南西,8.9,南,23.9,86.4,0,0,0,7.5
36,2021-05-17T00:35:00,2.1,南南西,7.9,南南東,24,86.5,0,0,0,7.5
37,2021-05-17T00:36:00,2,南南西,7.9,南南東,24,86.5,0,0,0,7.5
38,2021-05-17T00:37:00,1.9,南南西,6.2,南,24.1,86.4,0,0,0,7.5
39,2021-05-17T00:38:00,1.9,南南西,6.2,南,24.1,86.2,0,0,0,7.5
40,2021-05-17T00:39:00,1.9,南南西,6.2,南,24.1,86.1,0,0,0,7.5
41,2021-05-17T00:40:00,1.9,南西,6.2,南,24.1,86,0,0,0,7.5
42,2021-05-17T00:41:00,1.9,南西,6.2,南,24,86.1,0,0,0,7.5
43,2021-05-17T00:42:00,1.8,南南西,6.2,南,24,86.3,0,0,0,7.5
44,2021-05-17T00:43:00,1.9,南南西,6.2,南,24,86.4,0,0,0,7.5
45,2021-05-17T00:44:00,1.7,南南西,6.1,南南西,24.1,86.3,0,0,0,7.5
46,2021-05-17T00:45:00,1.5,南南西,5.7,南南西,24,86.3,0,0,0,7.5
47,2021-05-17T00:46:00,1.4,南南西,5.2,南西,23.9,86.6,0,0,0,7.5
48,2021-05-17T00:47:00,1.1,南南西,5.2,南西,23.8,86.7,0,0,0,7.5
49,2021-05-17T00:48:00,1,南南西,4.8,西南西,23.9,86.9,0,0,0,7.5
50,2021-05-17T00:49:00,1,南南西,4.8,西南西,23.9,86.9,0,0,0,7.5
51,2021-05-17T00:50:00,1,南南西,4.2,南西,23.9,87,0,0,0,7.5
52,2021-05-17T00:51:00,1,南南西,4.7,西南西,23.9,87,0,0,0,7.5
53,2021-05-17T00:52:00,1,南南西,4.7,西南西,23.9,86.9,0,0,0,7.5
54,2021-05-17T00:53:00,1.1,南南西,5,南,23.9,87,0,0,0,7.5
55,2021-05-17T00:54:00,1.2,南南西,5.8,南,24,86.9,0,0,0,7.5
56,2021-05-17T00:55:00,1.5,南南西,5.8,南,24,86.7,0,0,0,7.5
57,2021-05-17T00:56:00,1.7,南南西,5.8,南,23.9,86.8,0,0,0,7.5
58,2021-05-17T00:57:00,2.1,南南西,7.9,南西,24,86.8,0,0,0,7.5
59,2021-05-17T00:58:00,2.2,南南西,7.9,南西,24,86.7,0,0,0,7.5
60,2021-05-17T00:59:00,2.3,南南西,7.9,南西,24,86.7,0,0,0,7.5
61,2021-05-17T01:00:00,2.3,南南西,7.9,南西,24,86.6,0,0,0,7.5
62,2021-05-17T01:01:00,2.4,南,7.9,南西,24,86.7,0,0,0,7.5
63,2021-05-17T01:02:00,2.5,南,7.9,南西,24,86.6,0,0,0,7.5
64,2021-05-17T01:03:00,2.5,南,7.9,南西,24,86.6,0,0,0,7.5
65,2021-05-17T01:04:00,2.3,南南西,7.9,南西,23.9,86.6,0,0,0,7.5
66,2021-05-17T01:05:00,2.2,南南西,7.9,南西,23.9,86.9,0,0,0,7.5
67,2021-05-17T01:06:00,2,南南西,7.9,南西,23.8,87,0,0,0,7.5
68,2021-05-17T01:07:00,1.7,南南西,6.4,南南西,23.8,87.2,0,0,0,7.5
69,2021-05-17T01:08:00,1.5,南南西,4.8,南西,23.8,87.4,0,0,0,7.5
70,2021-05-17T01:09:00,1.5,南南西,4.8,南西,23.9,87.5,0,0,0,7.5
71,2021-05-17T01:10:00,1.5,南南西,5,南,23.9,87.4,0,0,0,7.5
72,2021-05-17T01:11:00,1.5,南南西,5.1,南南西,23.9,87.2,0,0,0,7.5
73,2021-05-17T01:12:00,1.4,南南西,5.1,南南西,24,87.2,0,0,0,7.5
74,2021-05-17T01:13:00,1.6,南,5.3,南南東,24.1,87.1,0,0,0,7.5
75,2021-05-17T01:14:00,1.7,南,5.3,南南東,24.1,86.7,0,0,0,7.5
76,2021-05-17T01:15:00,1.7,南南西,5.3,南南東,24.1,86.5,0,0,0,7.5
77,2021-05-17T01:16:00,1.7,南,5.3,南南東,24,86.4,0,0,0,7.5
78,2021-05-17T01:17:00,1.7,南,5.3,南南東,24,86.5,0,0,0,7.5
79,2021-05-17T01:18:00,1.7,南,5.3,南南東,24,86.3,0,0,0,7.5
80,2021-05-17T01:19:00,1.7,南,5.3,南南東,24,86.4,0,0,0,7.5
81,2021-05-17T01:20:00,1.6,南南西,5.3,南南東,23.9,86.5,0,0,0,7.5
82,2021-05-17T01:21:00,1.7,南南西,5.3,南南東,23.8,86.6,0,0,0,7.5
83,2021-05-17T01:22:00,1.8,南南西,5.7,南,23.9,87,0,0,0,7.5
84,2021-05-17T01:23:00,1.8,南南西,5.7,南,24,87,0,0,0,7.5
85,2021-05-17T01:24:00,1.8,南南西,5.7,南,24,86.8,0,0,0,7.5
86,2021-05-17T01:25:00,1.8,南南西,5.7,南,24,86.7,0,0,0,7.5
87,2021-05-17T01:26:00,1.7,南南西,5.7,南,24,86.6,0,0,0,7.5
88,2021-05-17T01:27:00,1.9,南南西,5.7,南,24,86.7,0,0,0,7.5
89,2021-05-17T01:28:00,2.1,南南西,5.7,南,23.9,86.8,0,0,0,7.5
90,2021-05-17T01:29:00,2.2,南南西,5.7,南,24,86.8,0,0,0,7.5
91,2021-05-17T01:30:00,2.3,南南西,5.7,南,24,86.7,0,0,0,7.5
92,2021-05-17T01:31:00,2.2,南南西,5.7,南,24,86.6,0,0,0,7.5
93,2021-05-17T01:32:00,2.1,南南西,5.6,南南西,24,86.6,0,0,0,7.5
94,2021-05-17T01:33:00,1.9,南南西,5.6,南南西,23.9,86.7,0,0,0,7.5
95,2021-05-17T01:34:00,1.9,南南西,5.6,南南西,23.8,87,0,0,0,7.5
96,2021-05-17T01:35:00,1.9,南南西,5.6,南南西,23.8,87.2,0,0,0,7.5
97,2021-05-17T01:36:00,2,南南西,5.6,南南西,23.8,87.4,0,0,0,7.5
98,2021-05-17T01:37:00,1.9,南南西,5.6,南南西,23.8,87.6,0,0,0,7.5
99,2021-05-17T01:38:00,1.8,南南西,5.4,南,23.8,87.8,0,0,0,7.5
100,2021-05-17T01:39:00,1.7,南南西,4.7,南東,23.7,88,0,0,0,7.5
101,2021-05-17T01:40:00,1.7,南南西,4.7,南東,23.7,88.3,0.5,0.5,0.5,8
102,2021-05-17T01:41:00,1.6,南南西,4.7,南東,23.7,88.3,0.5,0.5,0.5,8
103,2021-05-17T01:42:00,1.7,南南西,4.6,南,23.7,88.3,0.5,0.5,0.5,8
104,2021-05-17T01:43:00,1.6,南南西,4.6,南,23.7,88.5,0.5,0.5,0.5,8
105,2021-05-17T01:44:00,1.7,南南西,4.6,南,23.6,88.7,0.5,0.5,0.5,8
106,2021-05-17T01:45:00,1.6,南南西,4.5,南,23.6,88.8,0.5,0.5,0.5,8
107,2021-05-17T01:46:00,1.6,南南西,6.2,南南東,23.5,89,0.5,0.5,0.5,8
108,2021-05-17T01:47:00,1.7,南南西,6.2,南南東,23.5,89.3,0.5,0.5,0.5,8
109,2021-05-17T01:48:00,1.8,南南西,6.2,南南東,23.4,89.6,0.5,0.5,0.5,8
110,2021-05-17T01:49:00,2.1,南南西,6.8,南南西,23.5,89.7,0.5,0.5,0.5,8
111,2021-05-17T01:50:00,2.1,南南西,6.8,南南西,23.5,89.8,0,0.5,0.5,8
112,2021-05-17T01:51:00,1.9,南南西,6.8,南南西,23.5,89.8,0,0.5,0.5,8
113,2021-05-17T01:52:00,1.8,南南西,6.8,南南西,23.4,89.9,0.5,1,1,8.5
114,2021-05-17T01:53:00,1.9,南南西,6.8,南南西,23.4,90.1,0.5,1,1,8.5
115,2021-05-17T01:54:00,1.9,南南西,6.8,南南西,23.4,90.2,0.5,1,1,8.5
116,2021-05-17T01:55:00,2.1,南南西,6.8,南南西,23.5,90.3,0.5,1,1,8.5
117,2021-05-17T01:56:00,2.2,南南西,6.8,南南西,23.6,90.1,0.5,1,1,8.5
118,2021-05-17T01:57:00,2.2,南南西,6.8,南南西,23.6,89.9,0.5,1,1,8.5
119,2021-05-17T01:58:00,2.2,南南西,7,南南西,23.6,89.8,0.5,1,1,8.5
120,2021-05-17T01:59:00,2.2,南南西,7,南南西,23.6,89.7,0.5,1,1,8.5
121,2021-05-17T02:00:00,2.1,南南西,7,南南西,23.6,89.5,0.5,1,1,8.5
122,2021-05-17T02:01:00,2.5,南南西,7.7,南南東,23.6,89.5,0.5,1,1,8.5
123,2021-05-17T02:02:00,2.7,南南西,7.7,南南東,23.6,89.3,0,1,1,8.5
124,2021-05-17T02:03:00,2.8,南南西,7.7,南南東,23.5,89.3,0,1,1,8.5
125,2021-05-17T02:04:00,2.9,南南西,7.7,南南東,23.5,89.5,0,1,1,8.5
126,2021-05-17T02:05:00,2.8,南南西,7.7,南南東,23.5,89.6,0,1,1,8.5
127,2021-05-17T02:06:00,2.7,南南西,7.7,南南東,23.4,89.8,0.5,1.5,1.5,9
128,2021-05-17T02:07:00,2.6,南南西,7.7,南南東,23.4,90,0.5,1.5,1.5,9
129,2021-05-17T02:08:00,2.6,南南西,7.7,南南東,23.4,90.1,0.5,1.5,1.5,9
130,2021-05-17T02:09:00,2.6,南南西,7.7,南南東,23.4,90.2,0.5,1.5,1.5,9
131,2021-05-17T02:10:00,2.8,南南西,7.7,南南東,23.5,90.1,0.5,1.5,1.5,9
132,2021-05-17T02:11:00,2.6,南南西,7.7,南,23.5,89.9,0.5,1.5,1.5,9
133,2021-05-17T02:12:00,2.6,南南西,7.8,南,23.6,89.8,0.5,1.5,1.5,9
134,2021-05-17T02:13:00,2.6,南,7.8,南,23.5,89.7,0.5,1.5,1.5,9
135,2021-05-17T02:14:00,2.7,南,7.8,南,23.5,89.7,0.5,1.5,1.5,9
136,2021-05-17T02:15:00,2.7,南,7.8,南,23.6,89.6,0.5,1.5,1.5,9
137,2021-05-17T02:16:00,2.7,南,7.8,南,23.6,89.5,0,1.5,1.5,9
138,2021-05-17T02:17:00,2.8,南,7.8,南,23.5,89.4,0.5,2,2,9.5
139,2021-05-17T02:18:00,2.9,南,7.8,南,23.5,89.5,0.5,2,2,9.5
140,2021-05-17T02:19:00,2.7,南,7.8,南,23.5,89.4,0.5,2,2,9.5
141,2021-05-17T02:20:00,2.6,南,7.8,南,23.5,89.5,0.5,2,2,9.5
142,2021-05-17T02:21:00,2.6,南,7.8,南,23.6,89.4,0.5,2,2,9.5
143,2021-05-17T02:22:00,2.5,南,7.1,南南東,23.6,89.2,0.5,2,2,9.5
144,2021-05-17T02:23:00,2.6,南,6.6,南,23.6,89.1,0.5,2,2,9.5
145,2021-05-17T02:24:00,2.6,南,6.6,南,23.6,89,0.5,2,2,9.5
146,2021-05-17T02:25:00,2.7,南,6.6,南,23.5,89,0.5,2,2,9.5
147,2021-05-17T02:26:00,2.8,南,6.6,南,23.6,89.1,0.5,2,2,9.5
148,2021-05-17T02:27:00,2.9,南,6.6,南,23.6,89.1,0,2,2,9.5
149,2021-05-17T02:28:00,2.9,南,6.5,南,23.6,89.1,0,2,2,9.5
150,2021-05-17T02:29:00,3,南南西,6.5,南,23.6,89.1,0,2,2,9.5
151,2021-05-17T02:30:00,3,南南西,6.2,南南東,23.6,88.9,0,2,2,9.5
152,2021-05-17T02:31:00,3,南,6.2,南南東,23.6,88.8,0,2,2,9.5
153,2021-05-17T02:32:00,3,南,6.2,南南東,23.6,88.7,0,2,2,9.5
154,2021-05-17T02:33:00,2.8,南,6,南,23.6,88.7,0,2,2,9.5
155,2021-05-17T02:34:00,2.7,南,6,南,23.6,88.6,0,2,2,9.5
156,2021-05-17T02:35:00,2.7,南,6,南,23.6,88.7,0,2,2,9.5
157,2021-05-17T02:36:00,2.7,南,6,南,23.7,88.5,0,2,2,9.5
158,2021-05-17T02:37:00,2.6,南,5.9,南南西,23.6,88.4,0,2,2,9.5
159,2021-05-17T02:38:00,2.4,南,5.9,南南西,23.6,88.3,0,2,2,9.5
160,2021-05-17T02:39:00,2.3,南,5.9,南南西,23.6,88.3,0,2,2,9.5
161,2021-05-17T02:40:00,2.2,南,5.9,南南西,23.6,88.4,0,1.5,2,9.5
162,2021-05-17T02:41:00,2.1,南,5.9,南南西,23.6,88.5,0,1.5,2,9.5
163,2021-05-17T02:42:00,2.1,南南西,5.9,南南西,23.6,88.4,0,1.5,2,9.5
164,2021-05-17T02:43:00,2.1,南南西,5.9,南南西,23.5,88.6,0,1.5,2,9.5
165,2021-05-17T02:44:00,2,南南西,5.9,南南西,23.4,88.8,0,1.5,2,9.5
166,2021-05-17T02:45:00,1.9,南南西,5.4,南南西,23.4,89,0,1.5,2,9.5
167,2021-05-17T02:46:00,1.6,南,4,南,23.4,89.2,0,1.5,2,9.5
168,2021-05-17T02:47:00,1.5,南南西,3.8,南南東,23.5,89.2,0,1.5,2,9.5
169,2021-05-17T02:48:00,1.4,南南西,3.8,南南東,23.5,89.2,0,1.5,2,9.5
170,2021-05-17T02:49:00,1.4,南南西,3.7,南,23.4,89.3,0,1.5,2,9.5
171,2021-05-17T02:50:00,1.3,南南西,3.7,南,23.4,89.5,0,1.5,2,9.5
172,2021-05-17T02:51:00,1.1,南南西,3.3,南,23.3,89.7,0,1.5,2,9.5
173,2021-05-17T02:52:00,1,南南西,3.3,南,23.4,89.8,0,1,2,9.5
174,2021-05-17T02:53:00,0.9,南南西,3.3,南,23.3,89.8,0,1,2,9.5
175,2021-05-17T02:54:00,0.8,南,2.8,南南東,23.3,89.9,0,1,2,9.5
176,2021-05-17T02:55:00,0.6,南,2.2,南,23.2,90.2,0,1,2,9.5
177,2021-05-17T02:56:00,0.6,南,2,南南西,23.2,90.5,0,1,2,9.5
178,2021-05-17T02:57:00,0.6,南,2,南南西,23.4,90.5,0,1,2,9.5
179,2021-05-17T02:58:00,0.6,南,2.9,南東,23.4,90.4,0,1,2,9.5
180,2021-05-17T02:59:00,0.5,南南東,2.9,南東,23.2,90.3,0,1,2,9.5
181,2021-05-17T03:00:00,0.5,南南東,2.9,南東,23.3,90.5,0,1,2,9.5
182,2021-05-17T03:01:00,0.6,南南東,2.9,南東,23.3,90.4,0,1,2,9.5
183,2021-05-17T03:02:00,0.6,南南東,2.9,南東,23.3,90.3,0,1,2,9.5
184,2021-05-17T03:03:00,0.6,南,2.9,南東,23.4,90.2,0,1,2,9.5
185,2021-05-17T03:04:00,0.8,南,2.9,南東,23.3,90.1,0,1,2,9.5
186,2021-05-17T03:05:00,0.9,南,2.9,南東,23.3,90.2,0,1,2,9.5
187,2021-05-17T03:06:00,1.1,南,3.2,南,23.5,90.1,0,0.5,2,9.5
188,2021-05-17T03:07:00,1.1,南,3.2,南,23.4,89.8,0,0.5,2,9.5
189,2021-05-17T03:08:00,1.2,南,3.2,南,23.4,89.9,0,0.5,2,9.5
190,2021-05-17T03:09:00,1.3,南,3.2,南,23.4,89.9,0.5,1,2.5,10
191,2021-05-17T03:10:00,1.3,南,3.2,南,23.3,90,0.5,1,2.5,10
192,2021-05-17T03:11:00,1.3,南,3.2,南,23.4,90,0.5,1,2.5,10
193,2021-05-17T03:12:00,1.4,南,3.2,南,23.3,90,0.5,1,2.5,10
194,2021-05-17T03:13:00,1.5,南,3.2,南,23.4,90.1,0.5,1,2.5,10
195,2021-05-17T03:14:00,1.5,南,3.5,南,23.4,90,0.5,1,2.5,10
196,2021-05-17T03:15:00,1.7,南,4.8,南,23.3,90.1,0.5,1,2.5,10
197,2021-05-17T03:16:00,1.6,南,4.8,南,23.4,90.2,0.5,1,2.5,10
198,2021-05-17T03:17:00,1.6,南,4.8,南,23.5,90.2,0.5,0.5,2.5,10
199,2021-05-17T03:18:00,1.5,南南西,4.8,南,23.4,89.9,0.5,0.5,2.5,10
200,2021-05-17T03:19:00,1.5,南,4.8,南,23.4,89.8,0,0.5,2.5,10
201,2021-05-17T03:20:00,1.5,南南西,4.8,南,23.3,89.8,0,0.5,2.5,10
202,2021-05-17T03:21:00,1.5,南南西,4.8,南,23.2,90.1,0,0.5,2.5,10
203,2021-05-17T03:22:00,1.4,南南西,4.8,南,23.2,90.3,0,0.5,2.5,10
204,2021-05-17T03:23:00,1.3,南南西,4.8,南,23.3,90.6,0,0.5,2.5,10
205,2021-05-17T03:24:00,1.1,南南西,4.8,南,23.3,90.5,0,0.5,2.5,10
206,2021-05-17T03:25:00,0.9,南南西,2.9,南,23.4,90.4,0.5,1,3,10.5
207,2021-05-17T03:26:00,1,南南西,2.9,南,23.5,90.1,0.5,1,3,10.5
208,2021-05-17T03:27:00,1,南,3.7,南,23.4,89.8,0.5,1,3,10.5
209,2021-05-17T03:28:00,1,南,3.7,南,23.5,89.7,0.5,1,3,10.5
210,2021-05-17T03:29:00,1.1,南,3.7,南,23.3,89.7,0.5,1,3,10.5
211,2021-05-17T03:30:00,1.2,南,3.9,南西,23.4,89.9,0.5,1,3,10.5
212,2021-05-17T03:31:00,1.3,南南西,3.9,南西,23.4,89.8,0.5,1,3,10.5
213,2021-05-17T03:32:00,1.4,南南西,3.9,南西,23.4,89.9,0.5,1,3,10.5
214,2021-05-17T03:33:00,1.4,南南西,3.9,南西,23.4,89.9,0.5,1,3,10.5
215,2021-05-17T03:34:00,1.5,南南西,3.9,南西,23.3,89.9,0.5,1,3,10.5
216,2021-05-17T03:35:00,1.5,南南西,3.9,南西,23.2,90.1,0,1,3,10.5
217,2021-05-17T03:36:00,1.4,南南西,3.9,南西,23.2,90.3,0,1,3,10.5
218,2021-05-17T03:37:00,1.3,南南西,3.9,南西,23.2,90.6,0,1,3,10.5
219,2021-05-17T03:38:00,1.2,南西,3.9,南西,23.1,90.7,0,1,3,10.5
220,2021-05-17T03:39:00,1.1,南西,3.9,南西,23,91,0,1,3,10.5
221,2021-05-17T03:40:00,0.8,南西,3.3,南南西,23,91.4,0.5,1.5,3.5,11
222,2021-05-17T03:41:00,0.7,南西,3.3,南南西,22.9,91.8,0.5,1.5,3.5,11
223,2021-05-17T03:42:00,0.6,南西,3.3,南南西,22.9,92.2,0.5,1.5,3.5,11
224,2021-05-17T03:43:00,0.5,南西,3.3,南南西,22.9,92.6,0.5,1.5,3.5,11
225,2021-05-17T03:44:00,0.4,南西,3.3,南南西,22.9,92.7,0.5,1.5,3.5,11
226,2021-05-17T03:45:00,0.4,南西,1.7,東南東,22.8,92.8,0.5,1.5,3.5,11
227,2021-05-17T03:46:00,0.5,南南西,2.2,東南東,22.6,93,0.5,1.5,3.5,11
228,2021-05-17T03:47:00,0.5,南,2.2,東南東,22.5,93.4,0.5,1.5,3.5,11
229,2021-05-17T03:48:00,0.6,南南東,2.2,東南東,22.5,94,0.5,1.5,3.5,11
230,2021-05-17T03:49:00,0.7,南東,2.2,東南東,22.5,94.5,0.5,1.5,3.5,11
231,2021-05-17T03:50:00,0.8,東南東,3.4,南南西,22.5,94.8,0,1.5,3.5,11
232,2021-05-17T03:51:00,1,南東,3.6,南,22.7,95.1,0,1.5,3.5,11
233,2021-05-17T03:52:00,1.1,南南東,3.6,南,22.9,95.2,0,1.5,3.5,11
234,2021-05-17T03:53:00,1.2,南南東,3.6,南,22.9,94.9,0,1.5,3.5,11
235,2021-05-17T03:54:00,1.3,南,3.6,南,22.8,94.7,0,1.5,3.5,11
236,2021-05-17T03:55:00,1.3,南南西,3.6,南,23,94.7,0,1.5,3.5,11
237,2021-05-17T03:56:00,1.3,南西,3.6,南,23,94.2,0,1.5,3.5,11
238,2021-05-17T03:57:00,1.4,南西,3.6,南,23,93.8,0.5,2,4,11.5
239,2021-05-17T03:58:00,1.4,南西,3.6,南,22.9,93.7,1,2.5,4.5,12
240,2021-05-17T03:59:00,1.4,南西,3.6,南,22.8,93.7,1,2.5,4.5,12
241,2021-05-17T04:00:00,1.4,南西,3.6,南,22.7,93.8,1.5,3,5,12.5
242,2021-05-17T04:01:00,1.2,南西,3.6,南南西,22.6,94.1,2,3.5,5.5,13
243,2021-05-17T04:02:00,1.1,南西,3.6,南南西,22.6,94.3,2.5,4,6,13.5
244,2021-05-17T04:03:00,1.2,南西,3.6,南南西,22.6,94.6,2.5,4,6,13.5
245,2021-05-17T04:04:00,1.2,南西,3.6,南南西,22.7,94.9,2.5,4,6,13.5
246,2021-05-17T04:05:00,1.2,南西,2.7,南,22.7,94.9,2.5,4,6,13.5
247,2021-05-17T04:06:00,1.1,南西,2.7,南,22.6,94.9,2.5,4,6,13.5
248,2021-05-17T04:07:00,1.1,南南西,2.7,南,22.6,95,2,4,6,13.5
249,2021-05-17T04:08:00,1.1,南南西,2.7,南,22.7,95,1.5,4,6,13.5
250,2021-05-17T04:09:00,1,南南西,2.7,南,22.6,95,1.5,3.5,6,13.5
